SPACEVAN-001

导读

SPACEVAN-001是法国于2023年11月11日发射的卫星,作为法国航天领域的在轨飞行器,延续了法国自1965年成功独立发射卫星以来的太空探索传统。法国是全球第三个实现自主火箭送星入轨的航天国家,在军民航天领域积累深厚技术,这颗卫星将服务于法国航天布局,助力其在对地观测、空间态势感知等方向能力拓展,支撑法国及欧洲太空领域发展需求。

Basic Information
目录编号:
58295
目录名称:
SPACEVAN-001
国际标识:
2023-174AR
轨道中心:
EARTH
卫星名称:
SPACEVAN-001
卫星全名:
--
卫星状态:
在轨 (已飞行1039 天)
发射日期:
2023-11-11 UTC
国别 :
法国 (FR)
星等 :
--
This satellite is enrolled in the Space Conjunction Data Service (SCDS) and the current flight risk assessment level is: No High Risk
Orbit Information
数据来源 国际轨道数据
星历时间: 2026-09-15T21:41:15+0800
9小时前
查看轨道信息
半长轴: 6764.353km
偏心率: 0.0007999
轨道倾角: 97.400°
近地点辐角 98.099°
升交点赤经 359.292°
平近点角 262.118°
近地点: 380.805km
远地点: 391.627km
周期: 92.278分钟
每日圈数: 15.604986
Detailed Information
使用方式:
暂无
2D Orbit Map
3D Orbit Map
Orbit Altitude Analysis Chart
Orbit Inclination Analysis Chart
Orbit Comprehensive Analysis Chart
View Comprehensive Chart
Conjunction Data List
Event ID Objects TCA Miss Dist (km) Collision Risk Probability Collision Risk Index (CRI) Action
CDM_260916-113700-733705-829529
2026-09-16T
11:37:22+0000
1.693 km
极远距离
4.703289E-6 低风险 0.48
CDM_260917-152501-800905-829522
USA 23 (18009)
2026-09-17T
15:25:39+0000
1.782 km
极远距离
3.409734E-6 低风险 0.46
Miss Distance Evolution Trend with All Objects Subscribe to Flight Safety Assessment
Collision Probability Evolution Trend with All Objects Subscribe to Flight Safety Assessment